Ludington, MI

3:41 PM EST on November 12, 2019 (GMT -0500)
Mason County

Weather History for KLDM - September, 2019

Change the Weather History Date:

Monday, September 23, 2019

  Actual Average Record
Temperature  
Mean Temperature 60 °F -  
Max Temperature 68 °F 65 °F 86 °F (2017)
Min Temperature 53 °F 45 °F 32 °F (1974)
Degree Days  
Heating Degree Days 4    
Growing Degree Days 10 (Base 50)    
Moisture  
Dew Point 57 °F    
Average Humidity 86    
Maximum Humidity 96    
Minimum Humidity 64    
Precipitation  
Precipitation 0.00 in - - ()
Sea Level Pressure  
Sea Level Pressure 29.90 in    
Wind  
Wind Speed 5 mph (WNW)    
Max Wind Speed 16 mph    
Max Gust Speed 24 mph    
Visibility 9 miles    
Events      
Averages and records for this station are not official NWS values.
T = Trace of Precipitation, MM = Missing Value Source: NWS Daily Summary

Daily Weather History Graph

Daily Weather History Graph

Search for Another Location

Airport or City:

Astronomy

Sep. 23, 2019 Rise Set
Actual Time 7:33 AM EDT 7:41 PM EDT
Civil Twilight 7:04 AM EDT 8:10 PM EDT
Nautical Twilight 6:31 AM EDT 8:43 PM EDT
Astronomical Twilight 5:56 AM EDT 9:18 PM EDT
Moon 1:03 AM EDT (9/23) 4:47 PM EDT (9/23)
Length of Visible Light 13h 05m
Length of Day
12h 07m
Waning Crescent, 33% of the Moon is Illuminated
Sep 23
Waning Crescent
Sep 28
New
Oct 5
First Quarter
Oct 13
Full
Oct 21
Last Quarter

Hourly Weather History & Observations

Time (EDT) Temp. Dew Point Humidity Pressure Visibility Wind Dir Wind Speed Gust Speed Precip Events Conditions
12:15 AM 62.6 °F 61.2 °F 95% 29.78 in 10.0 mi Calm Calm - N/A   Scattered Clouds
12:16 AM 62.6 °F 61.2 °F 95% 29.78 in 10.0 mi Calm Calm - N/A   Scattered Clouds
12:35 AM 61.7 °F 60.4 °F 96% 29.78 in 2.5 mi Calm Calm - N/A   Scattered Clouds
12:36 AM 61.7 °F 60.4 °F 96% 29.78 in 2.5 mi Calm Calm - N/A   Scattered Clouds
12:59 AM 62.6 °F 61.2 °F 95% 29.79 in 10.0 mi West 3.5 mph - N/A   Scattered Clouds
1:17 AM 63.5 °F 62.1 °F 95% 29.78 in 10.0 mi West 3.5 mph - N/A   Mostly Cloudy
1:35 AM 63.9 °F 62.6 °F 96% 29.79 in 10.0 mi NW 3.5 mph - N/A   Overcast
1:55 AM 64.2 °F 63.0 °F 96% 29.79 in 10.0 mi WNW 5.8 mph - N/A   Overcast
2:15 AM 64.4 °F 63.1 °F 96% 29.80 in 10.0 mi WNW 5.8 mph - N/A   Overcast
2:19 AM 64.4 °F 63.1 °F 96% 29.80 in 10.0 mi NW 8.1 mph - N/A   Overcast
2:38 AM 64.6 °F 63.5 °F 96% 29.80 in 10.0 mi NW 6.9 mph - N/A   Overcast
2:56 AM 64.4 °F 63.0 °F 95% 29.80 in 10.0 mi NW 10.4 mph 18.4 mph N/A   Overcast
3:15 AM 63.5 °F 61.9 °F 94% 29.78 in 10.0 mi North 5.8 mph - N/A   Drizzle
3:35 AM 62.6 °F 61.3 °F 96% 29.78 in 10.0 mi Calm Calm - N/A   Mostly Cloudy
3:59 AM 61.9 °F 60.8 °F 96% 29.79 in 10.0 mi NNW 3.5 mph - N/A   Scattered Clouds
4:17 AM 61.7 °F 60.3 °F 95% 29.79 in 10.0 mi NW 3.5 mph - N/A   Mostly Cloudy
4:35 AM 62.2 °F 61.0 °F 96% 29.80 in 10.0 mi WNW 3.5 mph - N/A   Overcast
4:55 AM 62.6 °F 61.3 °F 96% 29.81 in 10.0 mi WNW 3.5 mph - N/A   Overcast
5:15 AM 62.2 °F 61.0 °F 96% 29.82 in 10.0 mi NNW 9.2 mph 16.1 mph N/A   Overcast
5:38 AM 61.3 °F 59.7 °F 94% 29.83 in 10.0 mi NNW 8.1 mph - N/A   Overcast
5:55 AM 61.0 °F 59.2 °F 94% 29.84 in 10.0 mi NNW 6.9 mph - N/A   Overcast
6:15 AM 60.8 °F 59.0 °F 94% 29.84 in 10.0 mi NW 8.1 mph - N/A   Overcast
6:16 AM 60.8 °F 58.8 °F 93% 29.84 in 10.0 mi NW 6.9 mph - N/A   Overcast
6:35 AM 60.1 °F 57.9 °F 93% 29.85 in 10.0 mi NW 5.8 mph - N/A   Overcast
7:17 AM 58.1 °F 55.8 °F 92% 29.86 in 10.0 mi NW 3.5 mph - N/A   Mostly Cloudy
7:35 AM 57.6 °F 55.6 °F 93% 29.87 in 10.0 mi Calm Calm - N/A   Scattered Clouds
7:36 AM 57.4 °F 55.6 °F 94% 29.87 in 10.0 mi Calm Calm - N/A   Scattered Clouds
7:55 AM 58.1 °F 55.6 °F 91% 29.87 in 10.0 mi NW 3.5 mph - N/A   Mostly Cloudy
7:56 AM 58.3 °F 55.6 °F 91% 29.87 in 10.0 mi WNW 3.5 mph - N/A   Mostly Cloudy
8:15 AM 59.9 °F 55.4 °F 85% 29.88 in 10.0 mi WNW 4.6 mph - N/A   Overcast
8:20 AM 60.1 °F 55.6 °F 85% 29.89 in 10.0 mi WNW 8.1 mph - N/A   Overcast
8:38 AM 60.6 °F 56.5 °F 86% 29.89 in 10.0 mi WNW 10.4 mph 16.1 mph N/A   Overcast
8:56 AM 60.8 °F 56.3 °F 85% 29.89 in 10.0 mi WNW 10.4 mph 16.1 mph N/A   Overcast
9:15 AM 61.0 °F 55.8 °F 83% 29.90 in 10.0 mi WNW 9.2 mph 17.3 mph N/A   Mostly Cloudy
9:35 AM 61.0 °F 55.8 °F 83% 29.90 in 10.0 mi WNW 8.1 mph 16.1 mph N/A   Mostly Cloudy
9:36 AM 61.0 °F 55.8 °F 83% 29.90 in 10.0 mi WNW 6.9 mph - N/A   Mostly Cloudy
9:58 AM 62.1 °F 56.5 °F 82% 29.90 in 10.0 mi West 5.8 mph - N/A   Mostly Cloudy
10:17 AM 61.9 °F 56.7 °F 83% 29.91 in 10.0 mi WNW 8.1 mph 17.3 mph N/A   Overcast
10:35 AM 61.9 °F 56.3 °F 82% 29.91 in 10.0 mi WNW 9.2 mph - N/A   Overcast
10:55 AM 61.7 °F 56.1 °F 82% 29.92 in 10.0 mi WNW 8.1 mph 18.4 mph N/A   Overcast
10:56 AM 61.9 °F 56.1 °F 81% 29.92 in 10.0 mi WNW 6.9 mph 18.4 mph N/A   Overcast
11:15 AM 63.1 °F 56.1 °F 78% 29.92 in 10.0 mi WNW 9.2 mph 18.4 mph N/A   Overcast
11:20 AM 62.8 °F 56.1 °F 79% 29.92 in 10.0 mi WNW 9.2 mph 18.4 mph N/A   Overcast
11:38 AM 63.5 °F 56.3 °F 77% 29.92 in 10.0 mi West 11.5 mph 17.3 mph N/A   Mostly Cloudy
11:56 AM 63.3 °F 56.3 °F 78% 29.93 in 10.0 mi WNW 11.5 mph 17.3 mph N/A   Mostly Cloudy
12:15 PM 63.1 °F 56.7 °F 79% 29.93 in 10.0 mi WNW 9.2 mph 17.3 mph N/A   Mostly Cloudy
12:35 PM 63.9 °F 57.4 °F 79% 29.93 in 10.0 mi WNW 5.8 mph 18.4 mph N/A   Overcast
12:36 PM 64.0 °F 57.4 °F 79% 29.93 in 10.0 mi WNW 8.1 mph 18.4 mph N/A   Overcast
12:59 PM 64.9 °F 57.9 °F 78% 29.93 in 10.0 mi WNW 11.5 mph 17.3 mph N/A   Overcast
1:17 PM 65.3 °F 56.7 °F 74% 29.93 in 10.0 mi WNW 16.1 mph 21.9 mph N/A   Scattered Clouds
1:35 PM 66.2 °F 55.9 °F 69% 29.93 in 10.0 mi WNW 11.5 mph 21.9 mph N/A   Scattered Clouds
1:55 PM 65.8 °F 55.6 °F 69% 29.93 in 10.0 mi WNW 10.4 mph 24.2 mph N/A   Scattered Clouds
2:15 PM 66.9 °F 56.3 °F 69% 29.93 in 10.0 mi WNW 10.4 mph 21.9 mph N/A   Clear
2:20 PM 67.1 °F 56.3 °F 68% 29.94 in 10.0 mi WNW 11.5 mph 21.9 mph N/A   Clear
2:38 PM 67.1 °F 56.5 °F 69% 29.94 in 10.0 mi NW 11.5 mph 17.3 mph N/A   Clear
2:56 PM 66.9 °F 55.9 °F 68% 29.94 in 10.0 mi NW 9.2 mph 20.7 mph N/A   Clear
3:15 PM 67.6 °F 56.7 °F 68% 29.93 in 10.0 mi NW 11.5 mph 16.1 mph N/A   Clear
3:35 PM 67.5 °F 55.8 °F 66% 29.93 in 10.0 mi NW 15.0 mph 20.7 mph N/A   Clear
3:59 PM 67.8 °F 56.1 °F 66% 29.93 in 10.0 mi WNW 8.1 mph - N/A   Clear
4:17 PM 68.0 °F 55.8 °F 65% 29.93 in 10.0 mi WNW 8.1 mph - N/A   Scattered Clouds
4:36 PM 68.0 °F 55.6 °F 64% 29.93 in 10.0 mi WNW 9.2 mph - N/A   Scattered Clouds
4:55 PM 66.7 °F 57.4 °F 72% 29.93 in 10.0 mi WNW 5.8 mph - N/A   Mostly Cloudy
5:15 PM 67.1 °F 57.2 °F 70% 29.93 in 10.0 mi WNW 10.4 mph - N/A   Scattered Clouds
5:38 PM 66.9 °F 55.6 °F 67% 29.94 in 10.0 mi NW 5.8 mph - N/A   Scattered Clouds
5:56 PM 66.6 °F 56.1 °F 69% 29.94 in 10.0 mi WNW 6.9 mph - N/A   Scattered Clouds
6:15 PM 65.7 °F 56.1 °F 71% 29.94 in 10.0 mi WNW 5.8 mph - N/A   Clear
6:16 PM 65.7 °F 56.1 °F 71% 29.94 in 10.0 mi WNW 5.8 mph - N/A   Clear
6:35 PM 65.5 °F 56.7 °F 73% 29.95 in 10.0 mi Calm Calm - N/A   Clear
6:59 PM 64.6 °F 56.7 °F 75% 29.95 in 10.0 mi NW 3.5 mph - N/A   Clear
7:17 PM 63.7 °F 56.7 °F 78% 29.95 in 10.0 mi Calm Calm - N/A   Clear
7:35 PM 61.7 °F 57.0 °F 85% 29.95 in 10.0 mi Calm Calm - N/A   Clear
7:36 PM 61.3 °F 57.0 °F 86% 29.95 in 10.0 mi Calm Calm - N/A   Clear
7:55 PM 59.4 °F 57.4 °F 93% 29.95 in 10.0 mi Calm Calm - N/A   Clear
7:56 PM 59.2 °F 57.4 °F 94% 29.95 in 7.0 mi Calm Calm - N/A   Clear
8:15 PM 57.7 °F 56.5 °F 96% 29.95 in 4.0 mi Calm Calm - N/A   Clear
8:38 PM 56.5 °F 55.2 °F 96% 29.96 in 5.0 mi Calm Calm - N/A   Clear
8:56 PM 56.7 °F 55.4 °F 96% 29.96 in 10.0 mi Calm Calm - N/A   Clear
9:15 PM 56.7 °F 55.4 °F 96% 29.97 in 1.8 mi Calm Calm - N/A   Mist
9:16 PM 56.7 °F 55.4 °F 96% 29.97 in 1.8 mi Calm Calm - N/A   Mist
9:35 PM 56.3 °F 54.9 °F 95% 29.97 in 0.8 mi Calm Calm - N/A   Mist
9:36 PM 56.3 °F 54.9 °F 95% 29.97 in 0.8 mi Calm Calm - N/A   Mist
9:59 PM 55.8 °F 54.5 °F 96% 29.96 in 7.0 mi Calm Calm - N/A   Clear
10:17 PM 54.0 °F 52.7 °F 95% 29.96 in 2.0 mi Calm Calm - N/A   Clear
10:35 PM 53.6 °F 52.3 °F 95% 29.96 in 7.0 mi Calm Calm - N/A   Mostly Cloudy
10:55 PM 55.2 °F 54.1 °F 96% 29.96 in 10.0 mi Calm Calm - N/A   Overcast
10:56 PM 55.6 °F 54.3 °F 96% 29.96 in 10.0 mi Calm Calm - N/A   Overcast
11:15 PM 56.3 °F 55.2 °F 96% 29.96 in 10.0 mi Calm Calm - N/A   Overcast
11:20 PM 56.3 °F 55.0 °F 96% 29.96 in 10.0 mi Calm Calm - N/A   Overcast
11:38 PM 57.0 °F 55.8 °F 96% 29.96 in 10.0 mi South 4.6 mph - N/A   Overcast
11:56 PM 59.0 °F 56.8 °F 93% 29.96 in 10.0 mi South 3.5 mph - N/A   Overcast